827  
ASUS44 KMOB 252312  
RWRMOB  
REGIONAL WEATHER ROUNDUP  
NATIONAL WEATHER SERVICE MOBILE AL  
600 PM CDT SAT MAR 25 2017  
 
NOTE: "FAIR" INDICATES FEW OR NO CLOUDS BELOW 12,000 FEET WITH NO  
SIGNIFICANT WEATHER AND/OR S TO VISIBILITY
.  
 
* THESE STATIONS ARE PART OF THE UNIVERSITY OF SOUTH ALABAMA  
MESONET AND ARE NOT UNDER NWS OR FAA QUALITY CONTROL.
 
 
ALZ061>064-260000-  
COASTAL ALABAMA  
 
CITY SKY/WX TMP DP RH WIND PRES REMARKS
 
MOBILE REG APT PTSUNNY 63 60 90 CALM 30.04F  
BROOKLEY FIELD CLOUDY 64 63 96 CALM 30.05R  
USA CAMPUS* NOT AVBL  
DOG RIVER* NOT AVBL  
 
 
CITY SKY/WX TMP DP RH WIND PRES REMARKS
 
GULF SHORES CLOUDY 70 70 99 SE10G17 30.03F  
 

 
 
ALZ051>060-260000-  
INTERIOR SOUTHWEST AND SOUTH CENTRAL ALABAMA  
 
CITY SKY/WX TMP DP RH WIND PRES REMARKS
 
GREENVILLE CLOUDY 74 56 53 S13G21 30.03R  
EVERGREEN LGT RAIN 70 62 76 S15 30.04R  
ATMORE* N/A 68 68 100 S8 30.06R  
ANDALUSIA/OPP CLOUDY 75 58 55 S9 30.06R  
ANDALUSIA* N/A 72 59 64 S14 30.06R  
FLORALA APT CLOUDY 72 58 61 S10G21 30.08R  
FLORALA* NOT AVBL  
 

 
 
FLZ001>006-260000-  
WESTERN FLORIDA PANHANDLE  
 
CITY SKY/WX TMP DP RH WIND PRES REMARKS
 
PENSACOLA CLOUDY 73 65 75 SE17G25 30.04F  
NAS PENSACOLA CLOUDY 72 66 81 S15 30.03F  
MILTON NOT AVBL  
WHTNG S FIELD NOT AVBL  
 
 
CITY SKY/WX TMP DP RH WIND PRES REMARKS
 
JAY* N/A 70 63 78 SE16 30.05S  
DUKE FIELD CLOUDY 69 63 80 S15G22 30.07R  
CRESTVIEW CLOUDY 70 62 76 S8 30.09R  
VALPARAISO CLOUDY 69 64 84 S14G23 30.08R  
DESTIN CLOUDY 72 69 90 SE13 30.07S  
 

 
 
MSZ076-079-260000-  
INTERIOR SOUTHEAST MISSISSIPPI  
 
CITY SKY/WX TMP DP RH WIND PRES REMARKS
 
LEAKESVILLE* N/A 59 59 100 SE2 29.99F  
AGRICOLA* NOT AVBL  
 

 
 
MARINE OBSERVATIONS  
 
STATION/POSITION TIME TEMP WIND PRES WAVE
 
AIR SEA DIR/SP/G HT/PER  
(UTC) (F) (DEG/KT/KT) (MB) (FT/S)  
PASCAGOULA 2248 66 280/ 7/ 9 1017.2F  
PETIT BOIS ISLND 2248 66 280/ 14/ 17 1018.3F  
GRAND BAY 2145 68 240/ 17 1018.0S  
KATRINA CUT 2230 300/ 20 1016.9R  
CEDAR POINT 2230 64 300/ 19 1016.9R  
E DAUPHIN ISLAND 2200 71 160/ 19/ 22 1016.5F  
MIDDLE BAY LIGHT 2230 71 160/ 20 1016.9F  
USCG MOBILE BAY 2248 62 70 290/ 5/ 7 1017.8R  
STATE DOCKS 2248 1017.0R  
MEAHER PARK 2230 72 160/ 18 1016.3S  
WEEKS BAY 2145 72 N/A  
FORT MORGAN 2248 63 270/ 14/ 20 N/A  
12 S ORANGE BCH 2250 70 69 160/ 17/ 19 1016.5F 6/ 7  
PENSACOLA BAY 2248 160/ 11/ 18 1017.4F  
64 S DAUPHIN ISL 2250 69 73 190/ 12/ 14 1018.1R 6/ 7  
67 S FORT MORGAN 2230 64 250/ 8 1017.3  
 

 
 
SELECTED LOCATIONS ACROSS THE REGION  
 
CITY SKY/WX TMP DP RH WIND PRES REMARKS
 
NEW ORLEANS CLOUDY 66 62 87 S10 29.99S  
GULFPORT LGT RAIN 64 61 90 SE10 30.02F  
PASCAGOULA AP CLOUDY 64 60 87 W5 30.04F  
PASCAGOULA* NOT AVBL  
HATTIESBURG PTSUNNY 62 59 90 SE8 30.00F  
LAUREL CLOUDY 63 57 82 S12 30.01F  
MERIDIAN CLOUDY 63 61 93 S7 29.97F  
JACKSON PTSUNNY 74 57 55 S16 29.91S  
MONTGOMERY LGT RAIN 64 56 75 W17 30.06R  
TROY CLOUDY 76 57 51 S14 30.04R  
ASHFORD* N/A 72 59 64 S14 30.06R  
DOTHAN MOSUNNY 76 57 51 S13 30.09S  
PANAMA CITY PTSUNNY 71 62 73 SE15 30.09S  
 

 
 
 
 
CLICK HERE TO GO TO PREVIOUS BULLETINS.

The Nexlab AL Page
The Nexlab FL Page
The Nexlab MS Page Main Text Page